This is the latest recevied weather packets stored in our database for station/object W0CHP-13. If no packets are shown the sender has not sent any weather packets the latest 10 day(s).
| Time | Temp. | Humidity | Pressure | Rain* | Wind** | Luminosity | Snow |
|---|---|---|---|---|---|---|---|
| 1777841596 | 23.33° C | 26% | 1002.7 hPa | 0 mm | - | 570 W/m² | - |
| 1777840998 | 23.33° C | 25% | 1002.7 hPa | 0 mm | - | 593 W/m² | - |
| 1777840396 | 23.33° C | 25% | 1002.7 hPa | 0 mm | - | 603 W/m² | - |
| 1777839795 | 23.89° C | 27% | 1002.7 hPa | 0 mm | - | 637 W/m² | - |
| 1777839197 | 23.33° C | 27% | 1002.7 hPa | 0 mm | - | 658 W/m² | - |
| 1777838595 | 23.89° C | 26% | 1003 hPa | 0 mm | - | 678 W/m² | - |
| 1777837997 | 23.89° C | 28% | 1003 hPa | 0 mm | - | 690 W/m² | - |
| 1777837395 | 23.89° C | 28% | 1003 hPa | 0 mm | - | 709 W/m² | - |
| 1777836798 | 24.44° C | 28% | 1003 hPa | 0 mm | - | 724 W/m² | - |
| 1777836196 | 23.89° C | 29% | 1003 hPa | 0 mm | - | 735 W/m² | - |
| 1777835598 | 23.89° C | 29% | 1003 hPa | 0 mm | - | 747 W/m² | - |
| 1777834996 | 22.78° C | 28% | 1003.2 hPa | 0 mm | - | 757 W/m² | - |
| 1777834399 | 24.44° C | 27% | 1003.2 hPa | 0 mm | - | 761 W/m² | - |
| 1777833796 | 23.33° C | 32% | 1003.2 hPa | 0 mm | - | 767 W/m² | - |
| 1777833195 | 23.33° C | 30% | 1003.4 hPa | 0 mm | - | 775 W/m² | - |
| 1777832597 | 23.33° C | 30% | 1003.4 hPa | 0 mm | - | 773 W/m² | - |
| 1777831995 | 23.89° C | 27% | 1003.4 hPa | 0 mm | - | 779 W/m² | - |
| 1777831397 | 25° C | 28% | 1003.4 hPa | 0 mm | - | 775 W/m² | - |
| 1777830795 | 25.56° C | 28% | 1003.4 hPa | 0 mm | - | 777 W/m² | - |
| 1777830198 | 25° C | 27% | 1003.5 hPa | 0 mm | - | 771 W/m² | - |
| 1777829596 | 25° C | 27% | 1003.7 hPa | 0 mm | - | 766 W/m² | - |
| 1777828998 | 25° C | 26% | 1003.5 hPa | 0 mm | - | 759 W/m² | - |
| 1777828396 | 26.11° C | 26% | 1003.7 hPa | 0 mm | - | 751 W/m² | - |
| 1777827798 | 26.11° C | 28% | 1003.7 hPa | 0 mm | - | 741 W/m² | - |
| 1777827197 | 25° C | 27% | 1003.7 hPa | 0 mm | - | 728 W/m² | - |
* Rain latest hour (hover to see other rain measurements)
** Current wind speed in m/s (hover to see current wind gust speed)